Location: Unspecified
(0.0000°N, 0.0000°E)
Time: 12:48:50
(UTC+00:00)

Envisat - Pass Details

Date: 14 December 2017
Orbit: 764 x 766 km, 98.2° (Epoch: 16 December)

Event Time Altitude Azimuth Distance (km) Brightness Sun altitude
Rises 19:38:26 0° 156° (SSE) 3,230 6.3 -23.6°
Reaches altitude 10° 19:40:51 10° 149° (SSE) 2,301 5.4 -24.2°
Enters shadow 19:42:17 19° 141° (SE) 1,783 4.7 -24.5°
